TIMED

导读

TIMED卫星(热成层-电离层-散逸层-能力学与动力学卫星)由美国于2001年12月7日发射,是NASA“太阳关联”计划首个任务,由约翰斯·霍普金斯大学应用物理实验室研制。作为一颗低成本科学卫星,它聚焦探索60-180公里高度地球大气区域,通过搭载四台科学仪器,测定该区域温度、密度、风场结构及变化,探究不同能源对热结构的影响,填补了人类对该区域认知的空白。

基本信息
目录编号:
26998
目录名称:
TIMED
国际标识:
2001-055B
轨道中心:
EARTH
卫星名称:
TIMED
卫星全名:
--
卫星状态:
在轨 (已飞行9038 天)
发射日期:
2001-12-07 UTC
国别 :
美国 (US)
星等 :
--
轨道信息
数据来源 国际轨道数据 AOE轨道数据
星历时间 2026-09-04T19:41:46+0800
23小时前
查看轨道信息
2026-09-03T09:00:00+0800
2天前
查看轨道信息
半长轴 6959.154km 6959.101km
偏心率 0.0002125 0.0002137
轨道倾角 74.066° 74.068°
近地点辐角 245.261° 247.542°
升交点赤经 75.330° 78.241°
平近点角 114.836° 253.012°
近地点 579.538km 579.476km
远地点 582.496km 582.452km
周期 96.293分钟 96.292分钟
每日圈数 14.95437 14.954542
详细信息
使用方式:
暂无
2D轨道图
3D轨道图
轨道高度分析图
轨道倾角分析图
轨道综合分析图
查看轨道综合分析图
交会数据列表
事件ID 空间交会对象 最接近时刻(TCA) 交会距离 交会风险概率(CRP) 交会风险指数(CRI) 操作
CDM_260906-054602-699806-324523
TIMED (26998)
2026-09-06T
05:46:37+0000
2.341 km
极远距离
1.448359E-6 低风险 0.38